Date,TemperatureHighF,TemperatureAvgF,TemperatureLowF,DewpointHighF,DewpointAvgF,DewpointLowF,HumidityHigh,HumidityAvg,HumidityLow,PressureMaxIn,PressureMinIn,WindSpeedMaxMPH,WindSpeedAvgMPH,GustSpeedMaxMPH,PrecipitationSumIn
2013-1-1,24.9,10.0,0.8,22.6,6.7,-3.2,91,86,83,28.07,27.86,25,4,25,0.00
2013-1-2,6.1,-1.0,-12.2,2.6,-4.9,-16.9,92,83,79,28.33,28.02,19,2,19,0.00
2013-1-3,9.3,-2.7,-13.1,6.0,-6.8,-17.8,92,82,79,28.34,28.08,9,0,9,0.00
2013-1-4,24.7,20.1,9.4,22.5,17.5,6.1,98,90,86,28.08,27.93,24,3,24,0.00
2013-1-5,24.5,16.4,9.3,22.2,13.0,5.7,92,86,80,28.41,27.96,33,4,33,0.00
2013-1-6,26.6,21.4,12.9,26.6,18.7,9.4,100,89,85,28.36,28.09,11,2,13,0.00
2013-1-7,26.6,15.5,8.7,24.6,12.7,5.3,98,88,86,28.49,28.16,10,1,10,0.00
2013-1-9,34.7,28.0,22.8,28.3,22.9,19.3,91,81,72,28.56,28.10,25,3,29,0.00
2013-1-10,30.5,28.2,20.0,28.1,22.4,15.9,91,79,73,28.74,28.19,31,6,33,0.00
2013-1-11,31.6,25.4,18.8,25.0,18.5,15.0,86,76,57,28.73,28.36,25,3,25,0.00
2013-1-12,39.7,35.3,31.2,37.4,33.3,29.1,93,93,91,28.37,28.28,17,4,17,0.32
2013-1-13,46.6,41.3,34.7,42.6,38.3,32.9,94,89,77,28.35,28.12,16,3,18,0.02
2013-1-14,46.7,37.2,26.2,45.1,32.5,17.7,94,83,66,28.47,28.04,23,4,26,0.01
2013-1-15,26.2,22.4,16.6,19.2,15.5,12.3,84,74,68,28.51,28.42,11,1,13,0.00
2013-1-16,25.2,22.9,19.9,22.7,18.8,14.0,91,84,75,28.43,27.97,13,1,13,0.00
2013-1-17,26.3,14.2,-2.4,23.0,5.6,-16.5,91,70,37,28.31,27.97,22,2,23,0.00
2013-1-18,9.9,0.8,-9.7,0.5,-11.6,-20.5,66,55,48,28.48,28.27,20,2,24,0.00
2013-1-19,33.3,21.3,8.9,26.1,15.7,0.5,87,79,65,28.39,27.98,21,4,21,0.00
2013-1-20,35.2,33.6,31.6,25.2,23.9,22.4,72,67,64,27.98,27.79,20,6,22,0.00
2013-2-1,12.3,6.7,3.4,6.8,1.9,-1.7,82,80,77,27.92,27.69,22,5,22,0.00
2013-2-2,14.1,7.0,-3.1,8.7,1.6,-7.5,86,79,64,28.30,28.18,16,2,16,0.00
2013-2-3,20.8,12.4,6.1,12.0,5.3,1.0,86,74,46,28.19,27.90,8,0,8,0.00
2013-2-4,13.0,7.7,-0.9,7.8,0.5,-12.7,86,73,54,28.05,27.86,22,3,22,0.00
2013-2-5,15.1,4.1,-7.7,-1.5,-8.8,-14.1,75,56,37,28.18,28.04,9,1,10,0.00
2013-2-6,19.7,12.0,0.0,16.3,4.2,-10.6,92,71,45,28.47,28.06,22,3,24,0.00
2013-2-7,6.3,0.0,-9.4,-7.5,-11.3,-14.7,77,59,44,28.67,28.48,13,1,14,0.00
2013-2-8,18.2,12.0,5.8,14.7,7.0,-8.0,92,80,52,28.60,28.14,14,1,14,0.00
2013-2-9,9.2,4.4,1.0,5.3,-1.8,-6.0,94,75,64,28.47,28.11,28,8,32,0.00
2013-2-10,26.6,12.6,-0.2,4.8,-1.7,-8.1,71,54,34,28.60,28.46,11,1,11,0.01
2013-2-11,17.9,17.9,17.9,3.2,3.2,3.2,52,52,52,28.45,27.80,3,3,7,0.00
2013-2-12,30.0,24.6,17.9,27.4,17.2,3.2,91,75,52,28.03,27.78,24,5,25,0.00
2013-2-13,28.6,27.6,23.9,25.5,23.8,21.4,90,85,80,28.04,27.97,7,3,22,0.00
2013-2-14,28.2,27.2,23.8,22.8,20.0,16.6,82,74,64,28.17,27.97,7,0,7,0.00
2013-2-15,36.5,31.0,27.7,28.3,21.2,18.2,89,67,57,28.17,28.06,18,2,20,0.01
2013-2-16,32.3,23.2,16.6,20.0,11.3,4.0,79,60,52,28.18,28.07,11,4,11,0.00
2013-2-17,16.6,8.9,3.3,4.0,-0.0,-3.4,83,67,57,28.07,27.77,24,6,24,0.00
2013-2-18,15.3,8.1,-0.9,-1.4,-4.5,-7.7,78,58,36,28.31,27.94,23,5,23,0.00
2013-2-19,36.1,25.4,11.4,16.7,5.2,-6.8,46,42,30,28.31,27.82,23,3,23,0.00
2013-2-20,35.2,25.0,17.1,17.3,14.9,13.1,85,68,46,27.92,27.78,21,6,23,0.00
2013-2-21,17.1,11.8,1.4,13.1,7.6,-2.8,84,83,78,28.51,27.91,14,5,18,0.00
2013-2-22,26.6,15.8,10.8,20.1,11.5,6.7,89,83,74,28.62,28.51,9,3,9,0.00